Location: Poughquag
(41.6090°N, 73.6820°W)
Time: 22:05:39
(UTC-05:00)

Envisat - Pass Details

Date: 17 October 2024
Orbit: 761 x 763 km, 98.3° (Epoch: 10 November)

Event Time Altitude Azimuth Distance (km) Brightness Sun altitude
Rises 04:56:44 0° 2° (N) 3,234 6.4 -25.5°
Reaches altitude 10° 04:59:16 10° 353° (N) 2,304 5.5 -25.0°
Enters shadow 05:00:57 19° 339° (NNW) 1,770 4.7 -24.7°
